Location: Kaltenbach
(49.2000°N, 7.7500°E)
Time: 19:08:56
(UTC+00:00)

STARLINK-1071 - Pass Details

Date: 24 January 2020
Orbit: 345 x 354 km, 53.0° (Epoch: 16 February)

Event Time Altitude Azimuth Distance (km) Brightness Sun altitude
Rises 17:17:04 0° 274° (W) 2,169 8.1 -10.6°
Reaches altitude 10° 17:19:09 10° 282° (WNW) 1,327 6.6 -11.0°
Maximum altitude 17:21:58 39° 354° (N) 555 3.6 -11.4°
Enters shadow 17:23:38 20° 54° (NE) 909 4.2 -11.7°
